Regional Weather Roundup
Issued by NWS

Home | Current Version | Previous Version | Graphics & Text | Print | Product List | Glossary On
Versions: 1 2 3 4 5 6 7 8 9 10 11 12 13 14 15 16 17 18 19 20 21 22 23 24 25 26 27 28 29 30 31 32 33 34 35 36 37 38 39 40 41 42 43 44 45 46 47 48 49 50
000
ASUS45 KCYS 301110
RWRWY

WYOMING REGIONAL WEATHER ROUNDUP
NATIONAL WEATHER SERVICE CHEYENNE WY
500 AM MDT SAT AUG 30 2014

NOTE:  "FAIR" INDICATES FEW OR NO CLOUDS BELOW 12,000 FEET
WITH NO SIGNIFICANT WEATHER AND/OR OBSTRUCTIONS TO VISIBILITY.

WYZ001-301200-
YELLOWSTONE NATIONAL PARK

CITY           SKY/WX    TMP DP  RH WIND       PRES   REMARKS
LK YELLOWSTONE   N/A     44  41  89 NW3       30.14F
W YELLOWSTONE  NOT AVBL

$$
WYZ002>013-054>058-071-098>099-301200-
NORTHERN WYOMING

CITY           SKY/WX    TMP DP  RH WIND       PRES   REMARKS
JACKSON        PTCLDY    46  43  87 NE5       30.05F
CODY           MOCLDY    64  45  48 SW7       29.91F
GREYBULL       CLEAR     55  47  74 SE7       29.85F
WORLAND        CLEAR     59  45  59 CALM      29.87F
SHERIDAN       CLEAR     49  45  86 CALM      29.85F
BUFFALO        CLEAR     56  44  64 S7        29.92F
GILLETTE       PTCLDY    58  52  80 S18       29.92F
HULETT         FAIR      61  50  67 MISG      29.94
NEWCASTLE      FAIR      61  48  63 E12       29.98

$$
WYZ014>020-022>026-101>103-301200-
CENTRAL WYOMING

CITY           SKY/WX    TMP DP  RH WIND       PRES   REMARKS
BIG PINEY      PTCLDY    46  41  82 E7        30.12F
PINEDALE       PTSUNNY   46  43  87 CALM      30.13F
DUBOIS         FAIR      45  36  70 W3        30.09F
LANDER         PTCLDY    60  39  45 NW5       29.98F
RIVERTON       PTCLDY    53  44  71 NW8       29.99F
CASPER         CLEAR     63  43  48 S13       29.99F
DOUGLAS        CLEAR     55  51  86 SE10      30.00F

$$
WYZ021-027>030-104>119-301200-
SOUTHERN WYOMING

CITY           SKY/WX    TMP DP  RH WIND       PRES   REMARKS
EVANSTON       CLEAR     55  39  54 S8        30.11F
KEMMERER       MOSUNNY   46  41  81 N5        30.12F
FORT BRIDGER   FAIR      60  40  47 S7        30.13F
ROCK SPRINGS   NOT AVBL
DIXON          FAIR      49  45  85 S5        30.19S
RAWLINS        CLEAR     52  40  63 S7        30.14S
SARATOGA       FAIR      52  43  71 SE12      30.18S
LARAMIE        CLEAR     45  41  86 S6        30.17F
CHEYENNE       CLEAR     50  46  86 SW7       30.12F
TORRINGTON     CLEAR     52  51  97 SE7       29.99F
PINE BLUFFS    FAIR      46  45  93 SW5       30.08F

$$


USA.gov is the U.S. government's official web portal to all federal, state and local government web resources and services.